User: anonymous   Login
Location: Young's Pond
(41.2695°N, 72.7766°W)
Time: 20:36:31
(UTC-04:00)
Language:

Spot 4 - Orbit

View from above orbital plane
View from above orbital plane
View from above satellite
View from above satellite

Ground track
Ground track

The orbit data is extracted from the following two-line orbital elements,

1 25260U 98017A   16146.20547327  .00000142  00000-0  45039-4 0  9990
2 25260  98.3803 223.2341 0013760  30.8559 329.3442 14.53407847945493
Epoch (UTC): 25 May 2016 04:55:52
Eccentricity: 0.0013760
inclination: 98.3803°
perigee height: 705 km
apogee height: 724 km
right ascension of ascending node: 223.2341°
argument of perigee: 30.8559°
revolutions per day: 14.53407847
mean anomaly at epoch: 329.3442°
orbit number at epoch: 94549

The dashed part of the orbit path shows where the satellite is in the earth's shadow,  

DLR